TimeCST,TemperatureF,Dew PointF,Humidity,Sea Level PressureIn,VisibilityMPH,Wind Direction,Wind SpeedMPH,Gust SpeedMPH,PrecipitationIn,Events,Conditions,WindDirDegrees,DateUTC
12:35 AM,71.6,66.2,83,30.12,10.0,SSE,10.4,-,N/A,,Overcast,160,2012-11-12 06:35:00
12:55 AM,71.6,68.0,88,30.12,10.0,SSE,8.1,-,N/A,,Overcast,160,2012-11-12 06:55:00
1:15 AM,69.8,68.0,94,30.11,7.0,SSE,6.9,-,N/A,,Drizzle,160,2012-11-12 07:15:00
1:55 AM,69.8,68.0,94,30.10,5.0,South,5.8,-,N/A,Rain,Rain,170,2012-11-12 07:55:00
2:15 AM,68.0,68.0,100,30.11,7.0,South,4.6,-,N/A,Rain,Light Rain,190,2012-11-12 08:15:00
2:35 AM,69.8,69.8,100,30.11,10.0,SSW,3.5,-,N/A,Thunderstorm,Overcast,210,2012-11-12 08:35:00
2:55 AM,69.8,69.8,100,30.12,7.0,WNW,10.4,-,N/A,Rain-Thunderstorm,Thunderstorms and Rain,290,2012-11-12 08:55:00
3:15 AM,68.0,68.0,100,30.12,4.0,West,6.9,-,N/A,Rain-Thunderstorm,Thunderstorms and Rain,260,2012-11-12 09:15:00
3:35 AM,68.0,68.0,100,30.11,2.0,South,8.1,-,N/A,Rain-Thunderstorm,Heavy Thunderstorms and Rain,170,2012-11-12 09:35:00
3:55 AM,68.0,68.0,100,30.12,10.0,South,9.2,-,N/A,Rain-Thunderstorm,Light Thunderstorms and Rain,170,2012-11-12 09:55:00
4:15 AM,68.0,68.0,100,30.14,7.0,West,17.3,21.9,N/A,Rain-Thunderstorm,Light Thunderstorms and Rain,270,2012-11-12 10:15:00
4:35 AM,60.8,60.8,100,30.18,4.0,NNW,23.0,34.5,N/A,Rain-Thunderstorm,Rain,330,2012-11-12 10:35:00
4:55 AM,59.0,59.0,100,30.19,7.0,NNW,13.8,17.3,N/A,Rain-Thunderstorm,Rain,330,2012-11-12 10:55:00
5:15 AM,59.0,59.0,100,30.20,10.0,North,17.3,23.0,N/A,,Drizzle,350,2012-11-12 11:15:00
5:35 AM,57.2,57.2,100,30.23,7.0,North,11.5,23.0,N/A,,Heavy Drizzle,350,2012-11-12 11:35:00
5:55 AM,55.4,55.4,100,30.24,10.0,North,9.2,20.7,N/A,,Drizzle,10,2012-11-12 11:55:00
6:35 AM,55.4,53.6,94,30.25,10.0,North,5.8,-,N/A,,Overcast,10,2012-11-12 12:35:00
6:55 AM,55.4,53.6,94,30.26,10.0,North,4.6,-,N/A,,Overcast,360,2012-11-12 12:55:00
7:15 AM,55.4,53.6,94,30.27,10.0,North,4.6,-,N/A,,Overcast,360,2012-11-12 13:15:00
7:35 AM,57.2,53.6,88,30.28,10.0,North,6.9,-,0.01,,Overcast,350,2012-11-12 13:35:00
7:55 AM,57.2,53.6,88,30.29,10.0,North,4.6,-,0.01,,Overcast,350,2012-11-12 13:55:00
8:15 AM,57.2,53.6,88,30.30,10.0,North,5.8,-,N/A,,Overcast,360,2012-11-12 14:15:00
8:35 AM,57.2,53.6,88,30.30,10.0,North,8.1,-,N/A,,Overcast,350,2012-11-12 14:35:00
8:55 AM,57.2,53.6,88,30.30,10.0,North,5.8,-,N/A,,Overcast,350,2012-11-12 14:55:00
9:15 AM,59.0,53.6,82,30.31,10.0,North,9.2,-,N/A,,Overcast,350,2012-11-12 15:15:00
9:35 AM,59.0,53.6,82,30.31,10.0,North,8.1,-,N/A,,Overcast,360,2012-11-12 15:35:00
9:55 AM,59.0,53.6,82,30.31,10.0,North,6.9,-,N/A,,Overcast,360,2012-11-12 15:55:00
10:15 AM,59.0,51.8,77,30.32,10.0,North,8.1,-,N/A,,Overcast,360,2012-11-12 16:15:00
10:55 AM,59.0,53.6,82,30.31,10.0,North,11.5,19.6,N/A,,Overcast,10,2012-11-12 16:55:00
11:15 AM,59.0,51.8,77,30.32,10.0,North,11.5,19.6,N/A,,Overcast,360,2012-11-12 17:15:00
11:35 AM,60.8,53.6,77,30.31,10.0,North,10.4,18.4,N/A,,Overcast,360,2012-11-12 17:35:00
11:55 AM,60.8,53.6,77,30.31,10.0,North,12.7,18.4,N/A,,Overcast,360,2012-11-12 17:55:00
12:15 PM,60.8,53.6,77,30.31,10.0,North,13.8,19.6,0.01,,Overcast,350,2012-11-12 18:15:00
12:35 PM,62.6,51.8,68,30.31,10.0,North,11.5,23.0,0.01,,Overcast,10,2012-11-12 18:35:00
12:55 PM,60.8,51.8,72,30.29,10.0,North,10.4,-,0.01,,Overcast,360,2012-11-12 18:55:00
1:15 PM,62.6,51.8,68,30.28,10.0,North,11.5,16.1,N/A,,Overcast,360,2012-11-12 19:15:00
1:35 PM,62.6,51.8,68,30.28,10.0,North,10.4,17.3,N/A,,Overcast,360,2012-11-12 19:35:00
1:55 PM,62.6,51.8,68,30.28,10.0,North,11.5,-,N/A,,Overcast,350,2012-11-12 19:55:00
2:15 PM,62.6,51.8,68,30.28,10.0,North,9.2,-,N/A,,Overcast,10,2012-11-12 20:15:00
2:35 PM,62.6,50.0,63,30.27,10.0,North,11.5,-,N/A,,Mostly Cloudy,10,2012-11-12 20:35:00
2:55 PM,64.4,50.0,59,30.27,10.0,North,8.1,20.7,N/A,,Scattered Clouds,360,2012-11-12 20:55:00
3:15 PM,64.4,50.0,59,30.28,10.0,North,10.4,19.6,N/A,,Scattered Clouds,360,2012-11-12 21:15:00
3:35 PM,62.6,50.0,63,30.29,10.0,North,9.2,19.6,N/A,,Mostly Cloudy,360,2012-11-12 21:35:00
3:55 PM,62.6,51.8,68,30.29,10.0,North,10.4,-,N/A,,Overcast,350,2012-11-12 21:55:00
4:15 PM,62.6,51.8,68,30.30,10.0,North,8.1,-,N/A,,Scattered Clouds,350,2012-11-12 22:15:00
4:35 PM,60.8,51.8,72,30.31,10.0,North,10.4,-,N/A,,Scattered Clouds,350,2012-11-12 22:35:00
4:55 PM,59.0,50.0,72,30.32,10.0,North,12.7,17.3,N/A,,Clear,350,2012-11-12 22:55:00
5:15 PM,57.2,50.0,77,30.33,10.0,North,10.4,21.9,N/A,,Clear,360,2012-11-12 23:15:00
5:55 PM,55.4,48.2,77,30.35,10.0,North,9.2,-,N/A,,Clear,350,2012-11-12 23:55:00
6:15 PM,53.6,48.2,82,30.36,10.0,North,10.4,16.1,N/A,,Clear,360,2012-11-13 00:15:00
6:55 PM,53.6,46.4,77,30.37,10.0,North,5.8,-,N/A,,Clear,360,2012-11-13 00:55:00
7:15 PM,51.8,46.4,82,30.38,10.0,North,6.9,-,N/A,,Clear,360,2012-11-13 01:15:00
7:35 PM,51.8,46.4,82,30.38,10.0,North,8.1,-,N/A,,Clear,360,2012-11-13 01:35:00
7:55 PM,50.0,44.6,82,30.39,10.0,North,5.8,-,N/A,,Clear,360,2012-11-13 01:55:00
8:15 PM,50.0,44.6,82,30.40,10.0,North,6.9,-,N/A,,Clear,360,2012-11-13 02:15:00
8:35 PM,50.0,44.6,82,30.40,10.0,North,4.6,-,N/A,,Clear,360,2012-11-13 02:35:00
8:55 PM,48.2,44.6,87,30.39,10.0,North,5.8,-,0.01,,Clear,360,2012-11-13 02:55:00
9:15 PM,46.4,42.8,87,30.39,10.0,North,5.8,-,N/A,,Clear,360,2012-11-13 03:15:00
9:35 PM,46.4,42.8,87,30.39,10.0,North,6.9,-,N/A,,Clear,360,2012-11-13 03:35:00
9:55 PM,46.4,42.8,87,30.39,10.0,North,8.1,-,N/A,,Clear,360,2012-11-13 03:55:00
10:15 PM,46.4,41.0,81,30.39,10.0,North,5.8,-,N/A,,Clear,360,2012-11-13 04:15:00
10:35 PM,46.4,41.0,81,30.39,10.0,North,6.9,-,N/A,,Clear,360,2012-11-13 04:35:00
10:55 PM,44.6,41.0,87,30.39,10.0,North,5.8,-,N/A,,Clear,10,2012-11-13 04:55:00
11:15 PM,44.6,39.2,81,30.40,10.0,North,4.6,-,N/A,,Clear,360,2012-11-13 05:15:00
11:35 PM,44.6,39.2,81,30.39,10.0,North,5.8,-,N/A,,Clear,360,2012-11-13 05:35:00
11:55 PM,42.8,39.2,87,30.40,10.0,North,5.8,-,N/A,,Clear,350,2012-11-13 05:55:00